TimeEST,TemperatureF,Dew PointF,Humidity,Sea Level PressureIn,VisibilityMPH,Wind Direction,Wind SpeedMPH,Gust SpeedMPH,PrecipitationIn,Events,Conditions,WindDirDegrees,DateUTC
12:15 AM,48.2,48.2,100,29.96,0.5,Calm,Calm,-,N/A,Fog,Fog,0,2012-12-10 05:15:00
12:35 AM,48.2,48.2,100,29.95,0.2,Calm,Calm,-,N/A,Fog,Fog,0,2012-12-10 05:35:00
12:55 AM,48.2,48.2,100,29.95,0.2,Calm,Calm,-,N/A,Fog,Fog,0,2012-12-10 05:55:00
1:15 AM,48.2,48.2,100,29.94,0.2,Calm,Calm,-,N/A,Fog,Fog,0,2012-12-10 06:15:00
1:35 AM,48.2,48.2,100,29.93,0.2,South,3.5,-,N/A,Fog,Fog,180,2012-12-10 06:35:00
1:55 AM,48.2,48.2,100,29.92,0.2,SSE,3.5,-,N/A,Fog,Fog,150,2012-12-10 06:55:00
2:15 AM,48.2,48.2,100,29.91,0.5,South,4.6,-,N/A,Fog,Fog,170,2012-12-10 07:15:00
2:35 AM,48.2,48.2,100,29.90,0.5,South,4.6,-,N/A,Fog,Fog,180,2012-12-10 07:35:00
2:55 AM,50.0,50.0,100,29.90,0.5,SSE,6.9,-,N/A,Fog,Fog,160,2012-12-10 07:55:00
3:15 AM,50.0,50.0,100,29.89,0.5,South,5.8,-,N/A,Fog,Fog,170,2012-12-10 08:15:00
3:55 AM,50.0,50.0,100,29.87,1.0,South,6.9,-,N/A,,Overcast,180,2012-12-10 08:55:00
4:15 AM,50.0,50.0,100,29.85,0.8,South,8.1,-,N/A,,Overcast,170,2012-12-10 09:15:00
4:35 AM,50.0,50.0,100,29.84,0.8,South,8.1,-,N/A,,Overcast,190,2012-12-10 09:35:00
4:55 AM,50.0,50.0,100,29.83,1.0,South,8.1,-,N/A,,Overcast,170,2012-12-10 09:55:00
5:15 AM,50.0,50.0,100,29.82,1.0,South,6.9,-,N/A,,Overcast,170,2012-12-10 10:15:00
5:35 AM,50.0,50.0,100,29.81,1.0,South,9.2,-,N/A,,Overcast,170,2012-12-10 10:35:00
5:55 AM,50.0,50.0,100,29.81,1.5,South,6.9,-,N/A,,Overcast,180,2012-12-10 10:55:00
6:15 AM,50.0,50.0,100,29.80,2.0,SSW,6.9,-,N/A,,Overcast,200,2012-12-10 11:15:00
6:35 AM,51.8,51.8,100,29.80,1.2,South,6.9,-,N/A,,Overcast,190,2012-12-10 11:35:00
6:55 AM,51.8,51.8,100,29.79,1.2,SSW,5.8,-,N/A,,Overcast,200,2012-12-10 11:55:00
7:15 AM,51.8,51.8,100,29.80,1.5,SSW,9.2,-,N/A,,Overcast,210,2012-12-10 12:15:00
7:35 AM,51.8,51.8,100,29.79,1.0,SSW,8.1,-,N/A,,Overcast,200,2012-12-10 12:35:00
8:15 AM,51.8,51.8,100,29.78,2.0,SSW,3.5,-,N/A,,Overcast,200,2012-12-10 13:15:00
8:35 AM,53.6,53.6,100,29.78,2.5,Calm,Calm,-,N/A,,Overcast,0,2012-12-10 13:35:00
8:55 AM,53.6,53.6,100,29.77,3.0,Calm,Calm,-,N/A,,Overcast,0,2012-12-10 13:55:00
9:15 AM,53.6,53.6,100,29.77,4.0,Calm,Calm,-,N/A,,Overcast,0,2012-12-10 14:15:00
9:35 AM,55.4,55.4,100,29.75,4.0,SSE,3.5,-,N/A,,Overcast,160,2012-12-10 14:35:00
9:55 AM,55.4,55.4,100,29.75,5.0,Calm,Calm,-,N/A,,Overcast,0,2012-12-10 14:55:00
10:15 AM,55.4,55.4,100,29.76,5.0,SSW,5.8,-,N/A,,Overcast,210,2012-12-10 15:15:00
10:35 AM,57.2,57.2,100,29.75,7.0,SSW,6.9,-,N/A,,Overcast,200,2012-12-10 15:35:00
10:55 AM,59.0,59.0,100,29.74,7.0,SW,5.8,-,N/A,,Overcast,220,2012-12-10 15:55:00
11:15 AM,59.0,59.0,100,29.73,7.0,SSW,4.6,-,N/A,,Overcast,200,2012-12-10 16:15:00
11:35 AM,59.0,59.0,100,29.71,7.0,NW,3.5,-,N/A,,Overcast,310,2012-12-10 16:35:00
11:55 AM,59.0,59.0,100,29.70,7.0,Calm,Calm,-,N/A,,Overcast,0,2012-12-10 16:55:00
12:15 PM,59.0,59.0,100,29.68,10.0,Calm,Calm,-,N/A,,Overcast,0,2012-12-10 17:15:00
12:35 PM,59.0,59.0,100,29.67,10.0,Calm,Calm,-,N/A,,Overcast,0,2012-12-10 17:35:00
12:55 PM,59.0,59.0,100,29.67,7.0,Calm,Calm,-,N/A,,Overcast,0,2012-12-10 17:55:00
1:15 PM,60.8,59.0,94,29.65,7.0,Calm,Calm,-,N/A,,Overcast,0,2012-12-10 18:15:00
1:35 PM,60.8,59.0,94,29.65,10.0,SW,3.5,-,N/A,,Overcast,230,2012-12-10 18:35:00
1:55 PM,60.8,59.0,94,29.64,10.0,South,3.5,-,N/A,,Overcast,180,2012-12-10 18:55:00
2:15 PM,60.8,59.0,94,29.63,7.0,SSW,3.5,-,N/A,,Overcast,210,2012-12-10 19:15:00
2:35 PM,60.8,59.0,94,29.62,10.0,SSW,4.6,-,N/A,,Overcast,210,2012-12-10 19:35:00
2:55 PM,60.8,59.0,94,29.63,10.0,WNW,3.5,-,N/A,,Overcast,290,2012-12-10 19:55:00
3:15 PM,60.8,59.0,94,29.62,5.0,Calm,Calm,-,N/A,Rain,Light Rain,0,2012-12-10 20:15:00
3:35 PM,60.8,59.0,94,29.60,7.0,South,6.9,-,N/A,,Overcast,170,2012-12-10 20:35:00
3:55 PM,60.8,60.8,100,29.60,7.0,South,6.9,-,N/A,,Overcast,190,2012-12-10 20:55:00
4:15 PM,60.8,60.8,100,29.59,7.0,South,10.4,-,N/A,,Overcast,190,2012-12-10 21:15:00
4:35 PM,60.8,60.8,100,29.60,7.0,SSW,6.9,-,N/A,,Overcast,210,2012-12-10 21:35:00
4:55 PM,60.8,60.8,100,29.59,10.0,SSW,5.8,-,N/A,,Overcast,200,2012-12-10 21:55:00
5:15 PM,60.8,59.0,94,29.60,10.0,SW,4.6,-,N/A,,Overcast,230,2012-12-10 22:15:00
5:35 PM,60.8,59.0,94,29.61,10.0,SW,6.9,-,N/A,,Overcast,220,2012-12-10 22:35:00
5:55 PM,60.8,59.0,94,29.61,10.0,WSW,4.6,-,N/A,,Overcast,250,2012-12-10 22:55:00
6:15 PM,60.8,59.0,94,29.60,7.0,SSW,5.8,-,N/A,,Overcast,210,2012-12-10 23:15:00
6:35 PM,59.0,59.0,100,29.60,10.0,SSW,8.1,-,N/A,,Overcast,210,2012-12-10 23:35:00
6:55 PM,60.8,59.0,94,29.60,10.0,SW,6.9,-,N/A,,Mostly Cloudy,220,2012-12-10 23:55:00
7:15 PM,59.0,59.0,100,29.58,10.0,SSW,6.9,-,N/A,,Scattered Clouds,200,2012-12-11 00:15:00
7:35 PM,59.0,59.0,100,29.60,10.0,SSW,9.2,-,N/A,,Clear,210,2012-12-11 00:35:00
7:55 PM,60.8,59.0,94,29.60,10.0,SW,6.9,-,N/A,,Clear,230,2012-12-11 00:55:00
8:15 PM,60.8,59.0,94,29.59,10.0,SW,5.8,-,N/A,,Scattered Clouds,220,2012-12-11 01:15:00
8:35 PM,59.0,59.0,100,29.60,10.0,SSW,6.9,-,N/A,,Mostly Cloudy,210,2012-12-11 01:35:00
8:55 PM,59.0,59.0,100,29.60,10.0,SSW,5.8,-,N/A,,Overcast,210,2012-12-11 01:55:00
9:15 PM,59.0,59.0,100,29.60,10.0,SSW,6.9,-,N/A,,Overcast,210,2012-12-11 02:15:00
9:35 PM,59.0,59.0,100,29.60,10.0,SSW,5.8,-,N/A,,Scattered Clouds,200,2012-12-11 02:35:00
9:55 PM,59.0,59.0,100,29.59,10.0,SSW,6.9,-,N/A,,Scattered Clouds,200,2012-12-11 02:55:00
10:15 PM,59.0,59.0,100,29.60,10.0,SW,6.9,-,N/A,,Scattered Clouds,220,2012-12-11 03:15:00
10:35 PM,59.0,59.0,100,29.63,10.0,West,10.4,-,N/A,,Mostly Cloudy,270,2012-12-11 03:35:00
10:55 PM,59.0,55.4,88,29.64,10.0,NW,11.5,17.3,N/A,,Overcast,320,2012-12-11 03:55:00
11:15 PM,55.4,50.0,82,29.66,10.0,NNW,23.0,32.2,N/A,,Overcast,330,2012-12-11 04:15:00
11:35 PM,51.8,46.4,82,29.68,10.0,NNW,20.7,27.6,N/A,,Overcast,340,2012-12-11 04:35:00
11:55 PM,50.0,44.6,82,29.70,10.0,NNW,18.4,31.1,N/A,,Overcast,340,2012-12-11 04:55:00